Location: Bonny Doon Airfield
(37.0704°N, 122.1252°W)
Time: 22:00:22
(UTC-07:00)

Vanguard 2 Rocket - Visible Passes

Search period start: 20 October 2017 00:00
Search period end: 30 October 2017 00:00
Orbit: 555 x 3327 km, 32.9° (Epoch: 20 October)

Date Brightness Start Highest point End Pass type
(mag) Time Alt. Az. Time Alt. Az. Time Alt. Az.
20 Oct 10.4 19:29:53 10° W 19:40:56 31° SSW 19:56:12 10° SSE visible
21 Oct 10.1 18:29:53 10° W 18:40:04 38° SSW 18:55:34 10° SSE visible
21 Oct 11.0 20:48:24 10° WSW 20:56:18 15° SW 21:05:30 10° S visible
22 Oct 10.8 19:46:09 10° WSW 19:55:23 21° SSW 20:07:19 10° S visible
23 Oct 10.5 18:45:28 10° W 18:54:37 27° SSW 19:07:38 10° SSE visible
24 Oct 11.1 20:05:01 10° SW 20:09:58 12° SW 20:15:34 10° SSW visible
25 Oct 10.9 19:02:13 10° WSW 19:09:15 17° SSW 19:18:14 10° S visible
